Vertical_Velocity
1 -4 -2 1 -1 2 -1 -2 -2 -2 -4 1 -1 1 2 -2 2 0 0 -1 -3 -2 -2 -4 4 1 -0 -2 -1 0 8 2 4 3 3 -0 0 -1 0 1 -1 -2 -1 -2 2 -0 1 0 0
1 1 -1 -1 3 -1 -6 2 -3 15 -2 1 0 1 4 7 -1 -2 -1 -0 -1 1 3 -1 2 1 0 -1 -3 -0 4 2 1 3 3 1 1 2 2 -0 1 2 -1 0 -1 -1 0 0 1
-1 2 -1 -5 -2 -2 2 -2 0 -2 1 0 -2 1 -3 0 3 -2 0 1 -2 -2 1 1 2 -1 0 3 4 15 9 7 4 2 3 2 1 2 2 -1 1 2 1 1 -1 2 2 1 1
-6 5 2 1 1 -3 -2 -1 8 3 7 3 -1 0 2 1 1 0 3 4 2 -0 -2 -1 1 -1 -1 2 3 -2 -1 0 0 3 1 -0 2 0 -0 0 -1 -0 0 1 2 -1 -0 0 -1
-1 -3 6 -0 -3 -3 -4 0 -1 3 -0 -3 -1 -1 1 2 -2 -0 0 2 2 0 -1 -1 -2 3 7 -1 2 1 1 1 3 4 2 0 -2 5 3 4 0 0 0 2 -0 -1 -0 -1 -1
0 4 1 1 -6 -3 -0 0 -4 0 1 -2 -1 -1 4 3 -1 2 2 1 2 -0 -1 1 3 2 1 1 1 1 0 1 -2 -1 0 -0 1 -1 1 1 2 1 -0 -2 -1 0 -0 -1 -2
-3 8 -9 -1 -7 2 -1 -1 -3 4 5 -0 -3 4 2 0 -3 -3 1 1 -0 -0 1 -0 -1 1 1 2 3 -0 3 1 1 1 -3 -1 2 -2 -1 0 -2 -1 1 -2 -1 1 1 0 0
5 13 27 20 -1 -3 -6 -5 -1 2 5 6 2 -2 0 3 -0 3 1 1 -1 2 3 3 -0 1 2 0 5 2 3 -1 -1 -0 -1 2 -1 -5 -1 2 -1 -1 -2 1 0 -0 2 0 2
5 -7 18 -3 -1 -3 -1 -4 10 0 1 4 -1 4 2 2 2 -2 2 -2 1 -2 1 -2 0 1 -3 1 -4 -1 0 -1 -0 -3 -1 2 -1 3 -3 -2 -0 -2 -1 0 2 0 2 1 -0
-3 1 18 4 2 -3 -0 1 7 2 1 1 -1 1 1 -0 -1 2 3 -1 -2 1 -2 0 -0 -1 1 -2 -2 -0 -3 -1 -1 2 1 -4 -0 2 4 -0 -1 -1 -0 -0 -1 0 1 0 -1
1 7 1 7 2 1 -5 -7 -5 2 2 1 -1 1 1 2 2 6 -1 1 -2 0 1 2 -2 -1 4 -0 -0 4 -2 -3 -3 -1 2 2 -0 1 3 0 2 3 1 -3 -1 0 -0 2 3
0 -4 0 -5 -2 7 -2 8 -6 2 -1 -1 -2 4 4 3 -1 3 1 -3 1 -2 6 1 -1 -1 1 4 1 -1 -5 -2 -3 -1 -2 1 1 -0 1 0 0 0 -2 -1 -0 -0 1 3 3
-3 2 6 -1 1 14 2 2 -4 3 3 -2 6 -3 0 1 3 3 3 2 -3 1 2 -2 -0 -1 3 1 0 -5 -0 0 2 0 1 -1 -4 -3 -3 1 1 1 -3 -3 -3 -2 -2 0 -1
-1 5 4 -2 1 -2 -0 -2 4 4 3 -3 0 -3 -1 -1 7 7 0 4 -1 -1 2 0 3 2 -0 -2 -3 -1 1 -1 1 1 -2 -1 2 2 2 3 2 1 0 4 4 3 -1 -6 -1
-2 1 6 -1 14 10 -2 -1 3 4 1 -2 -2 -2 -2 -2 -1 3 -0 3 -2 -0 0 -2 1 1 6 -1 4 -4 6 2 -0 -6 5 6 -0 1 1 -1 -1 0 -1 1 -3 -6 -2 3 -4
-4 -2 0 1 -2 -2 -1 6 1 0 2 2 -2 -1 3 4 2 5 -2 -0 -2 2 2 1 -1 1 -1 -1 -3 -5 2 1 -2 -0 -5 -2 -1 -4 -1 1 3 0 2 -0 -1 -3 -4 -3 2
3 10 4 2 2 -4 -3 4 10 4 -4 -0 -1 -3 1 -3 -2 1 1 -1 -3 2 -3 -0 -0 2 -2 -0 -1 -3 -0 -2 3 3 2 -4 -1 1 1 1 1 -4 -6 -1 -0 -2 3 3 3
-1 -2 -3 -1 -1 1 -5 -0 1 7 0 0 3 -2 -3 2 0 7 -0 3 -0 0 7 2 -3 -3 -2 1 1 4 -0 -0 -3 -2 2 -2 3 -3 -1 -1 -0 -3 -4 4 4 -1 -3 1 3
0 2 -3 0 -1 -5 -1 -0 -2 -3 0 4 -3 1 -3 2 1 -0 1 0 -2 -1 2 -1 -4 2 6 -1 1 3 -2 -1 -4 0 -2 1 1 -1 -2 0 -2 -7 -4 -2 6 1 -1 2 3
-2 2 -3 -3 -0 -5 -2 6 -4 3 3 2 -2 2 2 -3 -4 3 2 2 -1 2 -3 -1 -3 1 1 -0 -0 -1 3 -2 0 3 1 2 -0 -4 -2 2 -4 -3 -4 -1 2 -5 -2 -2 3
-2 -4 -3 1 -2 -8 7 1 2 3 -1 1 2 1 -0 2 1 -3 1 1 4 1 2 1 -2 -4 2 -3 -3 -2 1 2 4 -0 6 -2 -2 -2 -6 -2 -5 -6 -6 -4 5 -8 -0 -5 -5
4 -2 -4 -8 -1 1 3 3 -2 4 3 -1 1 3 3 2 -2 -1 -1 -1 4 -1 -0 3 3 1 -0 4 3 -1 -0 0 -2 -2 2 1 3 -3 -7 0 -2 -5 -4 -3 1 4 -0 -2 -3
5 -7 -2 -2 -0 1 3 -1 2 1 1 3 1 5 3 -1 6 4 -4 -1 2 -1 1 2 4 4 3 4 1 -0 1 -5 -1 0 3 1 7 5 3 -3 -1 -1 -7 -5 -4 -0 2 -5 -6
2 1 2 -4 -5 -1 -3 -3 7 3 2 -0 -4 -1 3 3 4 2 3 -1 -1 7 1 -2 6 2 0 0 1 0 -0 -2 -0 -2 -1 3 -1 -1 -2 -3 -3 -1 -1 1 1 -0 -6 -2 -1
3 1 3 1 -2 -1 -1 -3 0 2 4 4 7 0 7 0 3 -0 11 0 -1 -1 3 3 -0 2 3 2 -1 2 -2 -0 -1 -0 2 0 1 4 -2 -4 -7 -7 -6 -0 -2 -1 -4 -5 -0
1 -1 2 0 -1 -8 3 -1 -3 0 -1 2 -2 -4 -3 2 2 -0 3 3 -6 -1 -1 2 -1 1 1 4 0 3 1 1 -3 -3 -3 1 -2 0 3 4 3 3 2 1 -2 -2 -2 3 4
2 -3 -3 -2 -1 -1 -3 -1 -2 0 -2 2 -2 6 1 2 -0 -2 4 2 -2 0 -1 1 1 -2 1 6 2 4 4 1 0 1 1 1 3 5 4 6 0 1 1 4 1 0 3 1 -1
0 -1 -1 -1 -5 -1 2 0 -2 -3 -0 -1 4 3 -2 -3 0 3 -3 0 0 1 -2 1 0 1 0 2 4 2 4 5 3 2 1 -2 -1 -0 -1 -1 -1 -1 -2 -3 -1 -1 -1 -2 -2
2 0 -0 -3 -3 -3 -1 2 -4 -9 0 0 1 12 7 1 -6 2 -1 -4 -0 3 -2 2 1 -0 0 -1 0 1 0 1 1 1 -1 -1 1 1 -1 -2 -3 -3 -1 -1 -4 -7 -1 -2 -3
-2 -1 -1 -3 -6 -2 -5 3 -0 -4 -3 -2 1 7 3 8 0 2 -6 11 1 1 1 5 -3 -1 0 -1 -1 -0 0 2 1 1 1 -1 -0 1 1 1 -1 -3 -2 -3 -1 2 -1 -2 -1
Height
5886 5883 5882 5883 5886 5882 5881 5881 5881 5879 5879 5878 5878 5878 5878 5879 5879 5881 5879 5879 5879 5879 5879 5879 5880 5880 5882 5883 5884 5888 5891 5895 5897 5900 5902 5903 5904 5905 5907 5906 5906 5908 5909 5909 5908 5909 5910 5910 5910
5888 5885 5883 5884 5885 5882 5882 5883 5882 5880 5879 5880 5880 5880 5878 5879 5879 5879 5879 5879 5878 5878 5879 5878 5880 5880 5881 5884 5884 5887 5892 5895 5898 5901 5902 5903 5905 5906 5907 5907 5909 5908 5910 5911 5910 5910 5911 5911 5911
5887 5887 5887 5886 5883 5883 5883 5884 5884 5883 5881 5881 5880 5880 5879 5878 5880 5879 5880 5880 5879 5879 5879 5880 5879 5880 5882 5884 5887 5886 5888 5893 5897 5898 5900 5903 5906 5907 5907 5909 5910 5910 5912 5913 5912 5912 5913 5914 5914
5888 5888 5888 5888 5885 5883 5882 5886 5888 5884 5884 5883 5881 5882 5881 5879 5879 5880 5881 5881 5880 5880 5880 5879 5880 5880 5882 5885 5887 5891 5892 5894 5896 5899 5902 5904 5906 5908 5910 5911 5912 5912 5914 5915 5915 5915 5915 5916 5916
5887 5888 5890 5888 5886 5884 5882 5883 5888 5885 5882 5882 5881 5882 5882 5881 5880 5879 5880 5880 5880 5880 5881 5880 5881 5881 5883 5886 5888 5891 5892 5896 5898 5901 5903 5905 5906 5907 5910 5911 5913 5914 5915 5916 5917 5917 5918 5918 5918
5888 5889 5890 5888 5886 5886 5886 5884 5886 5884 5883 5881 5882 5883 5883 5883 5881 5880 5881 5881 5881 5881 5883 5883 5883 5884 5886 5887 5889 5892 5894 5898 5899 5902 5904 5906 5908 5909 5910 5912 5914 5916 5917 5918 5919 5920 5920 5920 5920
5884 5888 5887 5886 5886 5888 5887 5885 5885 5886 5886 5883 5882 5884 5885 5882 5881 5881 5883 5883 5881 5881 5883 5885 5886 5887 5887 5888 5891 5894 5896 5900 5902 5904 5905 5906 5909 5910 5911 5913 5915 5916 5918 5920 5921 5922 5921 5922 5923
5883 5883 5885 5885 5886 5886 5886 5885 5886 5887 5887 5886 5885 5883 5885 5883 5884 5884 5885 5884 5885 5885 5886 5888 5889 5888 5887 5889 5892 5895 5899 5901 5902 5905 5907 5909 5910 5910 5912 5914 5916 5917 5919 5920 5922 5922 5923 5924 5924
5884 5885 5884 5887 5888 5888 5888 5886 5884 5885 5885 5886 5886 5885 5886 5884 5884 5883 5884 5886 5888 5888 5888 5888 5889 5888 5888 5892 5894 5897 5898 5900 5903 5906 5907 5909 5910 5911 5913 5915 5918 5919 5920 5920 5923 5924 5924 5925 5925
5886 5883 5884 5887 5888 5889 5889 5888 5887 5887 5885 5884 5886 5886 5886 5885 5884 5885 5887 5888 5889 5889 5889 5889 5890 5891 5894 5896 5897 5899 5899 5901 5904 5906 5908 5908 5909 5913 5915 5915 5916 5918 5919 5920 5922 5924 5926 5927 5927
5886 5883 5883 5887 5889 5889 5885 5887 5885 5889 5888 5888 5885 5886 5887 5887 5887 5889 5889 5889 5889 5889 5889 5892 5892 5893 5897 5898 5899 5900 5901 5904 5904 5905 5907 5908 5909 5913 5916 5916 5917 5919 5920 5920 5922 5923 5925 5927 5929
5887 5887 5886 5887 5885 5887 5886 5891 5888 5889 5890 5889 5887 5888 5888 5888 5889 5891 5891 5890 5890 5890 5891 5893 5895 5895 5899 5901 5900 5900 5903 5904 5904 5904 5905 5910 5913 5915 5917 5918 5919 5919 5921 5923 5924 5925 5926 5928 5930
5888 5884 5884 5887 5889 5887 5888 5890 5890 5890 5891 5890 5891 5887 5888 5889 5891 5893 5893 5892 5892 5893 5895 5895 5894 5896 5897 5899 5900 5901 5904 5906 5906 5906 5909 5910 5914 5917 5919 5922 5923 5924 5924 5925 5925 5925 5926 5928 5930
5887 5886 5890 5889 5888 5887 5889 5890 5890 5890 5892 5891 5890 5889 5889 5890 5895 5896 5893 5895 5895 5895 5896 5897 5896 5898 5898 5899 5899 5900 5905 5907 5907 5908 5909 5912 5915 5920 5923 5926 5928 5930 5929 5929 5929 5928 5927 5929 5930
5888 5890 5892 5890 5888 5885 5890 5891 5890 5891 5892 5892 5891 5891 5891 5892 5893 5895 5895 5896 5896 5898 5899 5899 5899 5900 5899 5899 5904 5904 5907 5908 5910 5911 5912 5915 5918 5922 5927 5928 5930 5931 5930 5929 5929 5929 5930 5931 5931
5888 5890 5892 5890 5892 5889 5891 5890 5891 5892 5892 5895 5893 5893 5894 5896 5897 5898 5896 5898 5898 5900 5901 5903 5902 5902 5901 5901 5903 5905 5909 5911 5912 5914 5916 5919 5922 5924 5927 5929 5931 5932 5933 5931 5931 5932 5934 5934 5934
5890 5889 5890 5891 5891 5891 5892 5891 5891 5893 5893 5894 5895 5894 5895 5895 5898 5900 5900 5901 5902 5903 5903 5905 5904 5904 5903 5904 5906 5909 5911 5913 5915 5917 5920 5923 5925 5925 5928 5931 5933 5932 5933 5935 5937 5937 5937 5938 5938
5887 5886 5888 5889 5891 5890 5891 5893 5892 5893 5895 5896 5896 5895 5896 5896 5899 5902 5901 5904 5902 5903 5908 5908 5905 5905 5907 5908 5909 5911 5912 5912 5913 5917 5923 5926 5928 5927 5928 5930 5932 5932 5933 5937 5941 5941 5942 5941 5940
5885 5886 5887 5888 5891 5892 5891 5892 5891 5892 5892 5893 5895 5896 5896 5898 5899 5901 5901 5903 5904 5905 5908 5907 5907 5910 5911 5911 5912 5911 5912 5915 5915 5920 5924 5924 5926 5929 5928 5931 5930 5932 5935 5939 5943 5944 5942 5941 5940
5885 5884 5886 5888 5889 5889 5890 5890 5890 5890 5890 5890 5894 5897 5898 5898 5897 5902 5902 5904 5906 5907 5907 5908 5909 5910 5912 5912 5914 5913 5914 5914 5918 5923 5926 5927 5927 5931 5931 5929 5931 5932 5937 5939 5943 5944 5941 5939 5939
5879 5881 5882 5885 5886 5888 5889 5890 5888 5888 5887 5889 5893 5897 5899 5900 5900 5900 5900 5902 5906 5906 5909 5910 5910 5910 5913 5912 5914 5915 5916 5917 5921 5925 5929 5930 5931 5932 5934 5932 5931 5934 5938 5939 5942 5943 5941 5939 5939
5878 5879 5879 5881 5882 5885 5886 5887 5887 5888 5889 5889 5889 5894 5898 5901 5902 5902 5899 5900 5905 5905 5907 5911 5911 5912 5913 5915 5917 5918 5918 5920 5923 5927 5930 5933 5933 5931 5932 5934 5934 5936 5937 5938 5940 5941 5939 5936 5935
5877 5876 5877 5877 5879 5879 5881 5883 5885 5885 5885 5885 5884 5889 5894 5898 5902 5905 5899 5901 5904 5905 5906 5911 5913 5913 5915 5916 5917 5918 5921 5921 5924 5927 5931 5932 5935 5935 5936 5935 5935 5938 5937 5937 5938 5936 5936 5936 5935
5874 5874 5873 5874 5875 5876 5877 5877 5881 5884 5886 5882 5880 5880 5889 5894 5900 5902 5904 5902 5904 5906 5907 5909 5912 5914 5916 5917 5918 5920 5922 5923 5926 5928 5930 5934 5935 5935 5935 5936 5936 5935 5936 5939 5940 5939 5938 5939 5936
5871 5872 5873 5873 5872 5873 5873 5873 5874 5878 5881 5882 5877 5876 5883 5889 5894 5898 5903 5904 5902 5905 5907 5909 5910 5913 5916 5918 5919 5920 5921 5924 5926 5929 5931 5933 5935 5936 5934 5934 5934 5934 5935 5937 5940 5941 5940 5939 5935
5868 5868 5869 5867 5868 5870 5868 5869 5870 5871 5873 5876 5874 5874 5877 5883 5888 5894 5897 5901 5900 5903 5904 5907 5909 5912 5915 5917 5918 5921 5921 5924 5925 5928 5931 5932 5934 5935 5937 5937 5938 5937 5937 5940 5940 5940 5939 5936 5935
5864 5865 5864 5864 5864 5866 5866 5866 5868 5867 5867 5869 5870 5869 5873 5879 5883 5888 5894 5896 5898 5900 5901 5904 5906 5908 5912 5915 5917 5919 5922 5923 5925 5928 5930 5929 5931 5934 5936 5937 5937 5937 5937 5938 5937 5937 5936 5936 5935
5862 5863 5862 5862 5861 5862 5863 5863 5863 5862 5863 5862 5866 5868 5871 5873 5881 5886 5889 5892 5894 5896 5897 5902 5903 5906 5909 5913 5916 5918 5921 5923 5925 5927 5929 5929 5931 5934 5935 5935 5935 5936 5937 5937 5938 5938 5936 5935 5935
5859 5858 5858 5858 5857 5856 5857 5860 5857 5857 5856 5857 5859 5863 5865 5869 5873 5880 5885 5886 5891 5894 5895 5898 5901 5903 5905 5908 5912 5915 5917 5920 5923 5925 5926 5927 5928 5930 5932 5933 5934 5934 5934 5935 5935 5935 5935 5935 5934
5854 5854 5853 5852 5851 5851 5851 5854 5852 5852 5852 5853 5854 5854 5858 5860 5863 5871 5877 5883 5887 5890 5892 5895 5896 5899 5902 5904 5908 5913 5915 5917 5918 5922 5923 5925 5926 5928 5929 5930 5931 5932 5932 5931 5932 5933 5931 5931 5931